• In Romania
  • List of Countries
  • For 7 days
  • Water Temperature
  • Satellite Maps
  • Weather Map
  • Weather Widgets
  • user-avatar
    Login

    Hourly Weather Salzburg

    Today, 20 August, Sunday

    Time Temperature Precipitation Wind Pressure Humidity
    00:00 +7°C° 0.7 mm 1 mps 629 mmHg 96%
    01:00 +7°C° 0.7 mm 1 mps 629 mmHg 96%
    02:00 +7°C° 0.2 mm 1 mps 629 mmHg 96%
    03:00 +6°C° 0.2 mm 1 mps 629 mmHg 96%
    04:00 +6°C° 0.2 mm 1 mps 629 mmHg 96%
    05:00 +6°C° 0.4 mm 1 mps 629 mmHg 96%
    06:00 +7°C° 0.4 mm 1 mps 629 mmHg 96%
    07:00 +7°C° 0.4 mm 1 mps 629 mmHg 96%
    08:00 +8°C° 0.8 mm 1 mps 630 mmHg 92%
    09:00 +9°C° 0.8 mm 1 mps 630 mmHg 88%
    10:00 +9°C° 0.8 mm 1 mps 630 mmHg 84%
    11:00 +9°C° 0.2 mm 2 mps 630 mmHg 79%
    12:00 +10°C° 0.2 mm 2 mps 631 mmHg 73%
    13:00 +12°C° 0.2 mm 2 mps 631 mmHg 68%
    14:00 +12°C° 0.2 mm 2 mps 631 mmHg 67%
    15:00 +12°C° 0.2 mm 2 mps 631 mmHg 66%
    16:00 +13°C° 0.2 mm 2 mps 631 mmHg 65%
    17:00 +10°C° 0.1 mm 2 mps 631 mmHg 74%
    18:00 +9°C° 0.1 mm 1 mps 630 mmHg 82%
    19:00 +8°C° 0.1 mm 1 mps 630 mmHg 90%
    20:00 +7°C° 0 mm 1 mps 630 mmHg 92%
    21:00 +6°C° 0 mm 1 mps 630 mmHg 93%
    22:00 +5°C° 0 mm 1 mps 630 mmHg 95%
    23:00 +5°C° 0 mm 1 mps 630 mmHg 95%

    Tomorrow, 21 August, Monday

    Time Temperature Precipitation Wind Pressure Humidity
    00:00 +5°C° 0 mm 1 mps 630 mmHg 95%
    01:00 +5°C° 0 mm 1 mps 630 mmHg 95%
    02:00 +5°C° 0 mm 1 mps 630 mmHg 95%
    03:00 +4°C° 0 mm 1 mps 630 mmHg 95%
    04:00 +4°C° 0 mm 1 mps 630 mmHg 95%
    05:00 +5°C° 0 mm 1 mps 630 mmHg 92%
    06:00 +6°C° 0 mm 1 mps 630 mmHg 89%
    07:00 +7°C° 0 mm 1 mps 631 mmHg 87%
    08:00 +9°C° 0 mm 1 mps 631 mmHg 76%
    09:00 +11°C° 0 mm 1 mps 632 mmHg 65%
    10:00 +13°C° 0 mm 2 mps 632 mmHg 55%
    11:00 +13°C° 0 mm 2 mps 632 mmHg 51%
    12:00 +14°C° 0 mm 2 mps 632 mmHg 47%
    13:00 +15°C° 0 mm 2 mps 632 mmHg 43%
    14:00 +15°C° 0 mm 2 mps 632 mmHg 45%
    15:00 +15°C° 0 mm 2 mps 632 mmHg 47%
    16:00 +14°C° 0 mm 2 mps 632 mmHg 49%
    17:00 +12°C° 0 mm 2 mps 631 mmHg 61%
    18:00 +10°C° 0 mm 1 mps 630 mmHg 72%
    19:00 +8°C° 0 mm 1 mps 630 mmHg 84%
    20:00 +7°C° 0 mm 1 mps 630 mmHg 87%
    21:00 +6°C° 0 mm 1 mps 630 mmHg 90%
    22:00 +6°C° 0 mm 1 mps 630 mmHg 93%
    23:00 +5°C° 0 mm 1 mps 630 mmHg 93%

    Day after tomorrow, 22 August, Tuesday

    Time Temperature Precipitation Wind Pressure Humidity
    00:00 +5°C° 0 mm 1 mps 630 mmHg 93%
    01:00 +5°C° 0 mm 1 mps 630 mmHg 94%
    02:00 +5°C° 0 mm 1 mps 629 mmHg 93%
    03:00 +4°C° 0 mm 1 mps 629 mmHg 92%
    04:00 +4°C° 0 mm 1 mps 629 mmHg 92%
    05:00 +5°C° 0 mm 1 mps 630 mmHg 88%
    06:00 +7°C° 0 mm 1 mps 630 mmHg 83%
    07:00 +8°C° 0 mm 1 mps 631 mmHg 79%
    08:00 +10°C° 0 mm 1 mps 631 mmHg 70%
    09:00 +13°C° 0 mm 1 mps 632 mmHg 60%
    10:00 +15°C° 0 mm 1 mps 633 mmHg 51%
    11:00 +16°C° 0 mm 1 mps 633 mmHg 49%
    12:00 +18°C° 0 mm 1 mps 633 mmHg 46%
    13:00 +19°C° 0 mm 1 mps 633 mmHg 44%
    14:00 +19°C° 0 mm 1 mps 632 mmHg 46%
    15:00 +18°C° 0 mm 1 mps 632 mmHg 49%
    16:00 +17°C° 0 mm 2 mps 631 mmHg 52%
    17:00 +14°C° 0 mm 1 mps 630 mmHg 64%
    18:00 +12°C° 0 mm 1 mps 630 mmHg 75%
    19:00 +10°C° 0 mm 1 mps 629 mmHg 87%
    20:00 +9°C° 0 mm 1 mps 629 mmHg 89%
    21:00 +8°C° 0 mm 1 mps 629 mmHg 90%
    22:00 +7°C° 0 mm 1 mps 629 mmHg 92%
    23:00 +7°C° 0 mm 1 mps 629 mmHg 92%

    23 August, Wednesday

    Time Temperature Precipitation Wind Pressure Humidity
    00:00 +7°C° 0 mm 1 mps 628 mmHg 92%
    01:00 +7°C° 0 mm 1 mps 628 mmHg 92%
    02:00 +7°C° 0 mm 1 mps 628 mmHg 91%
    03:00 +7°C° 0 mm 1 mps 628 mmHg 91%
    04:00 +6°C° 0 mm 1 mps 628 mmHg 90%
    05:00 +8°C° 0 mm 1 mps 628 mmHg 86%
    06:00 +9°C° 0 mm 1 mps 629 mmHg 82%
    07:00 +10°C° 0 mm 1 mps 630 mmHg 77%
    08:00 +13°C° 0 mm 1 mps 631 mmHg 68%
    09:00 +16°C° 0 mm 1 mps 632 mmHg 58%
    10:00 +19°C° 0 mm 1 mps 632 mmHg 49%
    11:00 +20°C° 0 mm 1 mps 633 mmHg 47%
    12:00 +21°C° 0 mm 1 mps 633 mmHg 45%
    13:00 +22°C° 0 mm 1 mps 633 mmHg 43%
    14:00 +21°C° 0.1 mm 1 mps 632 mmHg 45%
    15:00 +21°C° 0.1 mm 1 mps 632 mmHg 48%
    16:00 +20°C° 0.1 mm 1 mps 632 mmHg 51%
    17:00 +18°C° 0.1 mm 1 mps 631 mmHg 63%
    18:00 +15°C° 0.1 mm 1 mps 630 mmHg 74%
    19:00 +11°C° 0.1 mm 0 mps 630 mmHg 86%
    20:00 +11°C° 0 mm 1 mps 630 mmHg 85%
    21:00 +11°C° 0 mm 1 mps 630 mmHg 85%
    22:00 +10°C° 0 mm 1 mps 630 mmHg 84%
    23:00 +10°C° 0 mm 1 mps 630 mmHg 83%

    24 August, Thursday

    Time Temperature Precipitation Wind Pressure Humidity
    00:00 +10°C° 0 mm 1 mps 630 mmHg 81%
    01:00 +10°C° 0 mm 1 mps 630 mmHg 80%
    02:00 +9°C° 0 mm 1 mps 629 mmHg 79%
    03:00 +9°C° 0 mm 1 mps 629 mmHg 78%
    04:00 +9°C° 0 mm 1 mps 629 mmHg 78%
    05:00 +10°C° 0 mm 1 mps 630 mmHg 76%
    06:00 +11°C° 0 mm 1 mps 630 mmHg 74%
    07:00 +13°C° 0 mm 1 mps 631 mmHg 72%
    08:00 +16°C° 0 mm 1 mps 632 mmHg 62%
    09:00 +19°C° 0 mm 1 mps 633 mmHg 53%
    10:00 +20°C° 0 mm 0 mps 634 mmHg 43%
    11:00 +23°C° 0 mm 1 mps 634 mmHg 43%
    12:00 +23°C° 0 mm 1 mps 634 mmHg 42%
    13:00 +23°C° 0 mm 2 mps 634 mmHg 42%
    14:00 +23°C° 0.2 mm 1 mps 634 mmHg 47%
    15:00 +22°C° 0.2 mm 1 mps 633 mmHg 53%
    16:00 +21°C° 0.2 mm 1 mps 633 mmHg 59%
    17:00 +19°C° 0.8 mm 1 mps 633 mmHg 68%
    18:00 +18°C° 0.8 mm 1 mps 632 mmHg 77%
    19:00 +14°C° 0.8 mm 0 mps 631 mmHg 86%
    20:00 +14°C° 0.5 mm 1 mps 631 mmHg 87%
    21:00 +13°C° 0.5 mm 1 mps 631 mmHg 88%
    22:00 +13°C° 0.5 mm 1 mps 631 mmHg 88%
    23:00 +12°C° 0.1 mm 1 mps 631 mmHg 88%

    25 August, Friday

    Time Temperature Precipitation Wind Pressure Humidity
    00:00 +12°C° 0.1 mm 1 mps 631 mmHg 87%
    01:00 +12°C° 0.1 mm 1 mps 631 mmHg 86%
    02:00 +11°C° 0 mm 1 mps 631 mmHg 85%
    03:00 +11°C° 0 mm 1 mps 631 mmHg 84%
    04:00 +11°C° 0 mm 1 mps 631 mmHg 84%
    05:00 +12°C° 0 mm 1 mps 631 mmHg 81%
    06:00 +13°C° 0 mm 1 mps 631 mmHg 79%
    07:00 +14°C° 0 mm 1 mps 632 mmHg 76%
    08:00 +18°C° 0 mm 1 mps 633 mmHg 66%
    09:00 +20°C° 0 mm 1 mps 634 mmHg 56%
    10:00 +23°C° 0 mm 1 mps 635 mmHg 46%
    11:00 +24°C° 0 mm 1 mps 635 mmHg 44%
    12:00 +24°C° 0 mm 1 mps 635 mmHg 43%
    13:00 +25°C° 0 mm 2 mps 635 mmHg 41%
    14:00 +25°C° 0.1 mm 2 mps 634 mmHg 45%
    15:00 +24°C° 0.1 mm 2 mps 634 mmHg 48%
    16:00 +24°C° 0.1 mm 2 mps 634 mmHg 52%
    17:00 +21°C° 0.4 mm 1 mps 633 mmHg 62%
    18:00 +19°C° 0.4 mm 1 mps 632 mmHg 73%
    19:00 +16°C° 0.4 mm 1 mps 632 mmHg 83%
    20:00 +15°C° 0.4 mm 1 mps 632 mmHg 84%
    21:00 +14°C° 0.4 mm 1 mps 632 mmHg 84%
    22:00 +14°C° 0.4 mm 1 mps 632 mmHg 85%
    23:00 +13°C° 0.6 mm 1 mps 631 mmHg 84%
    Show more